Weather observations for the past three days for
King Salmon, King Salmon Airport
Metric (Imperial)
Date Time (akdt) Wind (kph) Vis. (km) Weather Sky Cond. Temperature (ºC) Relative Humidity Wind Chill (°C) Heat Index (°C) Pressure Precipitation (cm)
Air Dwpt 6 hour altimeter (cm) sea level (mb) 1 hr 3 hr 6 hr
Max. Min.
21 09:54 NW 7 16.09 Overcast OVC065 11.7 8.9 11.7 8.3 83% 75.92 1012.1
21 08:54 N 7 16.09 Overcast OVC060 10.6 8.9 89% 75.92 1012.2
21 07:54 N 7 16.09 Overcast OVC085 9.4 7.8 90% 9 75.92 1012.2
21 06:54 NE 6 16.09 Overcast FEW065 OVC090 8.3 7.2 93% 75.92 1012.0
21 05:54 N 11 16.09 Light Rain OVC060 8.3 6.7 90% 7 75.9 1011.8
21 04:54 N 11 16.09 Light Rain OVC070 8.3 7.2 93% 7 75.9 1011.7
21 03:54 N 7 16.09 Overcast OVC080 8.9 8.3 11.7 8.3 96% 8 75.9 1011.9 0.05
21 02:54 NE 6 16.09 Overcast FEW065 OVC080 8.9 8.3 96% 75.9 1011.9
21 01:54 N 7 16.09 Overcast OVC090 8.3 7.8 97% 7 75.92 1012.1
21 00:54 Calm 16.09 Overcast OVC100 10 8.9 93% 75.9 1011.9 0.05
20 23:54 W 9 11.27 Overcast FEW026 BKN039 OVC047 10 9.4 96% 9 75.9 1011.8 0.03
20 22:54 SW 6 16.09 Overcast SCT029 OVC044 10.6 10 96% 75.87 1011.6 0.03
20 21:54 W 13 16.09 Overcast FEW012 OVC045 11.7 9.4 15 11.7 86% 75.84 1011.1
20 20:54 S 9 16.09 Overcast FEW031 BKN049 OVC055 12.2 8.9 80% 75.84 1011.0
20 19:54 S 15 16.09 Overcast SCT025 BKN029 OVC042 12.8 8.9 77% 75.82 1010.8
20 18:54 E 19 16.09 Overcast OVC055 13.9 5 55% 75.82 1010.6
20 17:54 E 24 G 37 16.09 Overcast OVC055 13.9 5 55% 75.82 1010.9
20 16:54 NE 7 16.09 Light Rain BKN047 OVC055 12.8 8.3 74% 75.84 1011.2
20 15:54 SE 26 G 44 16.09 Overcast FEW035 BKN043 OVC060 15 5 15.6 10.6 51% 75.84 1011.2
20 14:54 S 6 16.09 Mostly Cloudy FEW023 BKN029 BKN080 13.9 8.3 69% 75.87 1011.5
20 13:54 Calm 16.09 Overcast OVC021 12.2 8.3 77% 75.92 1012.1
20 12:54 Calm 16.09 Overcast BKN021 OVC028 11.7 7.8 77% 75.95 1012.3
20 11:54 NW 7 16.09 Overcast BKN029 BKN060 OVC110 11.1 8.3 83% 75.97 1012.7
20 10:54 N 7 16.09 Overcast OVC014 11.1 8.3 83% 76 1013.0
20 09:54 NW 9 16.09 Overcast BKN008 OVC015 10 8.3 10 8.3 89% 9 76.02 1013.4
20 08:54 W 7 16.09 Overcast OVC010 8.9 7.8 93% 8 76.05 1013.7
20 07:54 W 6 16.09 Overcast OVC010 8.3 7.8 97% 76.07 1014.2
20 06:54 W 7 16.09 Overcast OVC010 8.3 7.8 97% 7 76.1 1014.5
20 05:54 NW 7 16.09 Overcast BKN008 OVC016 8.3 7.2 93% 7 76.1 1014.6
20 04:54 NW 6 16.09 Overcast OVC008 8.3 7.8 97% 76.12 1014.9
20 03:54 NW 6 16.09 Overcast OVC021 8.3 7.8 10.6 8.3 97% 76.15 1015.1 0.03 0.05
20 02:54 Calm 14.48 Light Rain BKN021 BKN028 OVC043 8.3 7.8 97% 76.15 1015.2 0.03
20 01:54 W 6 16.09 Overcast BKN021 BKN026 OVC033 8.9 7.8 93% 76.15 1015.1
20 00:54 W 9 16.09 Light Rain SCT025 SCT039 OVC060 8.9 7.2 89% 8 76.15 1015.3
19 23:54 SW 9 16.09 Overcast OVC025 9.4 7.8 90% 8 76.17 1015.6
19 22:54 W 7 16.09 Overcast SCT029 BKN049 OVC060 10.6 7.2 80% 76.17 1015.5
19 21:54 SW 11 16.09 Overcast FEW029 BKN037 OVC060 10.6 7.2 12.8 10.6 80% 76.15 1015.2
19 20:54 SW 11 16.09 Overcast SCT033 BKN041 OVC050 11.1 7.2 77% 76.15 1015.1
19 19:54 SW 9 16.09 Light Rain FEW040 OVC050 11.7 8.3 80% 76.15 1015.1
19 18:54 S 6 16.09 Light Rain BKN041 OVC050 11.7 7.8 77% 76.15 1015.2
19 17:54 S 13 16.09 Light Rain OVC046 12.2 7.8 75% 76.15 1015.3
19 16:54 S 9 16.09 Light Rain OVC042 11.7 7.8 77% 76.17 1015.4
19 15:54 Calm 16.09 Light Rain OVC060 11.7 8.3 12.2 10.6 80% 76.15 1015.4 0.08
19 14:54 SW 11 16.09 Light Rain BKN044 OVC055 11.7 8.3 80% 76.17 1015.6 0.03
19 13:54 SE 13 12.87 Light Rain FEW025 BKN030 OVC037 11.1 7.8 80% 76.17 1015.6 0.03
19 12:54 SE 7 16.09 Light Rain FEW028 BKN039 OVC055 11.7 6.7 72% 76.15 1015.3 0.03 0.03
19 11:54 S 13 16.09 Light Rain SCT030 BKN035 OVC050 11.7 6.1 69% 76.15 1015.3
19 10:54 S 6 16.09 Overcast SCT055 OVC085 11.7 6.1 69% 76.12 1015.0
19 09:54 Calm 16.09 Overcast OVC060 10.6 7.2 11.1 7.2 80% 76.12 1014.8
19 08:54 Calm 16.09 Light Rain FEW050 OVC070 10 6.7 80% 76.1 1014.6
19 06:54 Calm 16.09 Overcast OVC090 8.3 7.2 93% 76.07 1014.3
19 05:54 Calm 16.09 Light Rain OVC060 8.3 6.7 90% 76.07 1014.1
19 04:54 E 6 16.09 Overcast OVC060 7.2 6.1 93% 76.07 1014.1
19 03:54 Calm 16.09 Overcast OVC065 8.3 5.6 12.2 8.3 83% 76.07 1014.1
19 02:54 SE 7 16.09 Overcast BKN070 OVC085 8.9 6.1 83% 8 76.07 1014.3
19 01:54 SE 13 16.09 Overcast OVC075 8.9 6.7 86% 7 76.1 1014.5
19 00:54 S 15 16.09 Overcast OVC065 9.4 6.7 83% 7 76.07 1014.2
18 23:54 SE 13 16.09 Overcast BKN070 OVC090 10.6 5.6 71% 76.02 1013.7
18 22:54 SE 17 16.09 Overcast OVC080 11.7 6.1 69% 76.02 1013.5
18 21:54 SE 15 16.09 Overcast BKN038 OVC070 11.7 7.2 13.9 11.7 74% 76 1013.3 0.03
18 20:54 S 15 16.09 Overcast OVC039 12.2 7.8 75% 76 1013.1
18 19:54 E 7 14.48 Light Rain OVC043 11.7 7.8 77% 76 1013.1 0.03
18 18:54 SE 13 16.09 Overcast OVC049 12.2 7.2 72% 76 1013.1
18 17:54 S 22 16.09 Light Rain SCT048 OVC070 13.3 5.6 60% 76 1013.2
18 16:54 S 22 16.09 Overcast BKN041 OVC049 13.3 5 57% 76.02 1013.5
18 15:54 SE 15 16.09 Overcast OVC042 13.3 5.6 13.3 11.1 60% 76.02 1013.4
18 14:54 E 15 G 31 16.09 Overcast OVC050 13.3 5 57% 76.02 1013.4
18 13:54 NE 9 16.09 Overcast BKN055 OVC075 12.2 6.7 69% 76.02 1013.5
18 11:54 S 6 16.09 Light Rain OVC055 11.1 5.6 69% 76.07 1014.1
18 10:54 Calm 16.09 Overcast OVC075 11.1 5 66% 76.07 1014.3
Date Time (akdt) Wind (kph) Vis. (km) Weather Sky Cond. Air Dwpt Max. Min. Relative Humidity Wind Chill (°C) Heat Index (°C) altimeter (cm) sea level (mb) 1 hr 3 hr 6 hr
6 hour
Temperature (ºC) Pressure Precipitation (cm)